Location: Newark
(37.8333°N, 119.5000°W)
Time: 08:03:04
(UTC+00:00)

Tiros 1 despin weight - Pass Details

Date: 03 September 2019
Orbit: 594 x 642 km, 48.2° (Epoch: 21 September)

Event Time Altitude Azimuth Distance (km) Brightness Sun altitude
Rises 03:12:55 0° 247° (WSW) 2,823 ? -9.8°
Reaches altitude 10° 03:15:14 10° 252° (WSW) 1,921 ? -10.3°
Maximum altitude 03:19:33 56° 331° (NNW) 704 ? -11.1°
Drops below altitude 10° 03:23:55 10° 50° (NE) 1,929 ? -11.9°
Enters shadow 03:25:40 - 54° (NE) 2,606 ? -12.2°
